QPF
0.00 0.00 0.00 0.00 0.00 0.00 0.00 0.00 0.02 0.02 0.03 0.00 0.07 0.13 0.09 0.10 0.12 0.13 0.15 0.18 0.15 0.04 0.01 0.01 0.02 0.01 0.00 0.00 0.02 0.07 0.09 0.13 0.08 0.02 0.01 0.00 0.00 0.01 0.03 0.02 0.02 0.01 0.01
0.00 0.00 0.00 0.00 0.00 0.00 0.00 0.00 0.00 0.01 0.02 0.00 0.01 0.02 0.01 0.02 0.02 0.05 0.07 0.07 0.09 0.04 0.03 0.01 0.00 0.01 0.02 0.00 0.00 0.00 0.00 0.01 0.01 0.00 0.00 0.00 0.00 0.00 0.00 0.00 0.01 0.01 0.01
0.00 0.00 0.00 0.00 0.00 0.00 0.00 0.00 0.02 0.02 0.01 0.00 0.00 0.00 0.00 0.00 0.00 0.01 0.02 0.02 0.02 0.00 0.00 0.00 0.00 0.00 0.00 0.00 0.00 0.00 0.00 0.00 0.00 0.00 0.00 0.00 0.00 0.00 0.00 0.00 0.02 0.02 0.02
0.00 0.00 0.00 0.00 0.00 0.00 0.00 0.00 0.01 0.06 0.07 0.02 0.01 0.01 0.00 0.00 0.00 0.02 0.01 0.00 0.00 0.00 0.00 0.00 0.00 0.00 0.00 0.00 0.00 0.00 0.00 0.00 0.00 0.00 0.00 0.00 0.00 0.00 0.00 0.01 0.02 0.04 0.02
0.00 0.00 0.00 0.00 0.00 0.00 0.00 0.00 0.01 0.03 0.07 0.05 0.06 0.02 0.01 0.00 0.00 0.00 0.00 0.00 0.00 0.00 0.00 0.00 0.00 0.00 0.00 0.00 0.00 0.00 0.00 0.00 0.00 0.00 0.00 0.00 0.00 0.00 0.00 0.01 0.01 0.02 0.03
0.00 0.00 0.00 0.00 0.00 0.00 0.00 0.00 0.00 0.00 0.02 0.03 0.06 0.03 0.02 0.01 0.02 0.00 0.00 0.00 0.00 0.00 0.00 0.00 0.00 0.00 0.00 0.00 0.00 0.00 0.00 0.00 0.00 0.00 0.00 0.00 0.00 0.00 0.00 0.00 0.00 0.01 0.01
0.00 0.00 0.00 0.00 0.00 0.00 0.00 0.00 0.00 0.00 0.01 0.01 0.01 0.02 0.03 0.05 0.04 0.05 0.03 0.00 0.00 0.00 0.00 0.00 0.00 0.00 0.00 0.00 0.00 0.00 0.00 0.00 0.00 0.00 0.00 0.00 0.00 0.00 0.00 0.00 0.00 0.00 0.00
0.00 0.00 0.00 0.00 0.00 0.00 0.00 0.00 0.00 0.00 0.00 0.00 0.00 0.00 0.01 0.01 0.01 0.06 0.15 0.03 0.00 0.00 0.00 0.00 0.00 0.00 0.00 0.00 0.00 0.00 0.00 0.00 0.00 0.00 0.00 0.00 0.00 0.00 0.00 0.00 0.00 0.00 0.00
0.00 0.00 0.00 0.00 0.00 0.00 0.00 0.00 0.00 0.01 0.00 0.00 0.00 0.00 0.00 0.00 0.00 0.01 0.10 0.07 0.02 0.02 0.02 0.00 0.00 0.00 0.00 0.01 0.00 0.00 0.00 0.00 0.00 0.00 0.00 0.00 0.00 0.00 0.00 0.00 0.00 0.00 0.00
0.00 0.00 0.00 0.00 0.00 0.00 0.00 0.00 0.00 0.00 0.00 0.00 0.00 0.00 0.00 0.00 0.00 0.00 0.01 0.01 0.06 0.06 0.04 0.02 0.03 0.00 0.00 0.00 0.00 0.00 0.00 0.00 0.00 0.00 0.00 0.00 0.00 0.00 0.00 0.00 0.00 0.00 0.02
0.00 0.00 0.00 0.00 0.00 0.00 0.00 0.00 0.00 0.00 0.00 0.00 0.00 0.00 0.00 0.00 0.00 0.00 0.00 0.00 0.01 0.04 0.02 0.00 0.02 0.02 0.01 0.00 0.00 0.00 0.00 0.00 0.00 0.00 0.00 0.00 0.00 0.00 0.00 0.00 0.00 0.01 0.06
0.00 0.00 0.00 0.00 0.00 0.00 0.00 0.00 0.00 0.00 0.00 0.00 0.00 0.00 0.00 0.00 0.00 0.00 0.00 0.01 0.01 0.04 0.04 0.00 0.00 0.00 0.00 0.00 0.01 0.00 0.00 0.00 0.00 0.00 0.00 0.00 0.00 0.00 0.00 0.00 0.00 0.02 0.09
0.00 0.00 0.00 0.00 0.00 0.00 0.00 0.00 0.00 0.00 0.00 0.00 0.00 0.00 0.00 0.00 0.00 0.00 0.00 0.00 0.01 0.01 0.00 0.00 0.06 0.03 0.01 0.01 0.01 0.00 0.00 0.00 0.00 0.00 0.00 0.00 0.00 0.00 0.00 0.00 0.00 0.02 0.02
0.00 0.00 0.00 0.00 0.00 0.00 0.00 0.00 0.00 0.00 0.00 0.00 0.00 0.00 0.00 0.00 0.00 0.00 0.00 0.00 0.00 0.00 0.00 0.00 0.01 0.02 0.02 0.03 0.01 0.01 0.00 0.00 0.00 0.00 0.00 0.00 0.00 0.00 0.00 0.00 0.00 0.01 0.04
0.00 0.00 0.00 0.00 0.00 0.00 0.00 0.00 0.00 0.00 0.00 0.00 0.00 0.00 0.00 0.00 0.00 0.00 0.00 0.00 0.00 0.00 0.00 0.00 0.00 0.00 0.00 0.00 0.00 0.00 0.00 0.00 0.00 0.00 0.00 0.00 0.00 0.00 0.00 0.00 0.00 0.04 0.08
0.00 0.00 0.00 0.00 0.00 0.00 0.00 0.00 0.00 0.00 0.00 0.00 0.00 0.00 0.00 0.00 0.00 0.00 0.00 0.00 0.00 0.00 0.00 0.00 0.00 0.00 0.00 0.00 0.00 0.00 0.00 0.00 0.00 0.00 0.00 0.00 0.00 0.00 0.00 0.00 0.01 0.10 0.18
0.00 0.00 0.00 0.00 0.01 0.01 0.01 0.00 0.00 0.00 0.00 0.00 0.00 0.00 0.00 0.00 0.00 0.00 0.00 0.00 0.00 0.00 0.00 0.00 0.00 0.00 0.00 0.00 0.00 0.00 0.00 0.00 0.00 0.00 0.00 0.00 0.00 0.00 0.00 0.00 0.02 0.14 0.10
0.00 0.00 0.00 0.00 0.00 0.00 0.00 0.00 0.00 0.00 0.00 0.00 0.00 0.00 0.00 0.00 0.00 0.00 0.00 0.00 0.00 0.00 0.00 0.00 0.00 0.00 0.00 0.00 0.00 0.00 0.00 0.00 0.00 0.00 0.00 0.00 0.00 0.00 0.00 0.01 0.03 0.09 0.07
0.00 0.00 0.00 0.00 0.00 0.00 0.00 0.00 0.00 0.00 0.00 0.00 0.00 0.00 0.00 0.00 0.00 0.00 0.00 0.00 0.00 0.00 0.00 0.00 0.00 0.00 0.00 0.00 0.00 0.00 0.00 0.00 0.00 0.00 0.00 0.00 0.00 0.00 0.00 0.02 0.08 0.15 0.14
0.00 0.00 0.00 0.00 0.00 0.00 0.00 0.00 0.00 0.00 0.00 0.00 0.00 0.00 0.00 0.00 0.00 0.00 0.00 0.00 0.00 0.00 0.00 0.00 0.00 0.00 0.00 0.00 0.00 0.00 0.00 0.00 0.00 0.00 0.00 0.00 0.00 0.01 0.01 0.03 0.11 0.11 0.11
0.00 0.00 0.00 0.00 0.00 0.00 0.00 0.00 0.00 0.00 0.00 0.00 0.00 0.00 0.00 0.01 0.00 0.00 0.00 0.00 0.00 0.00 0.00 0.00 0.00 0.00 0.00 0.00 0.00 0.00 0.00 0.00 0.00 0.00 0.00 0.00 0.00 0.01 0.03 0.10 0.14 0.18 0.16
0.00 0.00 0.00 0.00 0.00 0.00 0.00 0.00 0.00 0.00 0.00 0.00 0.00 0.00 0.00 0.00 0.00 0.00 0.00 0.00 0.00 0.00 0.00 0.00 0.00 0.00 0.00 0.00 0.00 0.00 0.00 0.00 0.00 0.00 0.00 0.00 0.01 0.05 0.12 0.11 0.07 0.13 0.13
0.00 0.00 0.00 0.00 0.00 0.00 0.00 0.00 0.00 0.00 0.00 0.00 0.00 0.00 0.00 0.00 0.00 0.00 0.00 0.00 0.00 0.00 0.00 0.00 0.00 0.00 0.00 0.00 0.00 0.00 0.00 0.00 0.00 0.00 0.01 0.01 0.03 0.07 0.07 0.07 0.10 0.11 0.09
0.00 0.00 0.00 0.00 0.00 0.00 0.00 0.00 0.00 0.00 0.00 0.00 0.00 0.00 0.00 0.00 0.00 0.00 0.00 0.00 0.00 0.00 0.00 0.00 0.00 0.00 0.00 0.00 0.00 0.00 0.00 0.00 0.00 0.01 0.01 0.03 0.08 0.07 0.05 0.05 0.07 0.08 0.04
0.00 0.00 0.00 0.00 0.00 0.00 0.00 0.00 0.00 0.00 0.00 0.00 0.00 0.00 0.00 0.00 0.00 0.00 0.00 0.00 0.00 0.00 0.00 0.00 0.00 0.00 0.00 0.00 0.00 0.01 0.00 0.00 0.01 0.01 0.05 0.09 0.09 0.03 0.03 0.07 0.09 0.03 0.00
0.00 0.00 0.00 0.00 0.00 0.00 0.00 0.00 0.00 0.00 0.00 0.00 0.00 0.00 0.00 0.00 0.00 0.01 0.01 0.00 0.00 0.00 0.00 0.00 0.00 0.00 0.00 0.00 0.00 0.00 0.00 0.00 0.01 0.04 0.12 0.12 0.09 0.05 0.04 0.05 0.03 0.00 0.00
MSLP
1004.10 1004.01 1004.35 1003.55 1003.60 1003.67 1003.49 1003.21 1002.74 1002.18 1001.39 1000.86 1000.86 1000.93 1001.07 1002.30 1003.34 1002.40 1000.75 1001.91 1000.31 1000.79 1001.91 1003.02 1003.03 1004.03 1004.94 1005.25 1005.34 1005.92 1006.21 1006.87 1006.86 1006.58 1006.78 1006.54 1006.51 1006.57 1006.32 1006.22 1006.16 1006.29 1006.12
1004.02 1004.05 1004.11 1003.70 1003.65 1003.88 1003.64 1003.05 1002.63 1002.28 1001.88 1000.95 1000.29 999.90 999.95 999.80 1000.67 1001.06 1000.91 1002.07 1000.49 1000.61 1001.97 1002.24 1003.06 1003.78 1004.64 1004.87 1004.80 1005.43 1005.71 1006.03 1006.14 1006.68 1006.52 1006.35 1006.40 1006.15 1006.02 1005.95 1005.48 1005.37 1005.57
1004.00 1004.10 1004.00 1003.82 1004.05 1003.97 1003.77 1003.29 1002.65 1002.34 1002.04 1001.66 1000.83 999.75 999.01 998.96 999.58 999.70 1000.86 1001.97 1001.32 1001.26 1001.16 1000.98 1002.29 1003.62 1004.29 1004.50 1004.69 1004.89 1005.46 1006.18 1006.38 1006.76 1006.73 1006.33 1006.26 1005.91 1005.68 1005.20 1004.82 1004.73 1004.71
1003.95 1004.08 1004.08 1003.99 1003.80 1003.72 1003.63 1003.45 1002.96 1002.16 1001.76 1002.23 1001.83 1001.92 998.29 998.67 998.82 999.66 1000.44 1001.30 1001.18 1001.02 1000.80 1001.52 1001.74 1002.67 1003.92 1004.25 1004.20 1004.62 1005.58 1006.35 1006.54 1006.93 1007.04 1006.84 1006.43 1005.84 1005.66 1005.66 1005.16 1004.85 1004.75
1003.81 1003.89 1003.93 1003.81 1003.64 1003.26 1003.22 1003.10 1002.91 1002.47 1001.64 1000.88 1001.54 1002.16 1001.94 998.85 998.98 999.39 1000.12 1000.84 1001.02 1001.03 1001.01 1001.01 1001.65 1002.48 1002.97 1004.04 1003.91 1004.86 1005.76 1006.38 1006.75 1007.21 1007.39 1007.06 1006.73 1006.37 1006.45 1006.00 1005.77 1005.22 1004.65
1003.56 1003.45 1003.48 1003.47 1003.31 1002.98 1002.59 1002.36 1002.35 1002.20 1001.90 1001.16 1001.13 1001.74 1002.30 1000.28 1000.21 999.33 999.25 999.59 999.85 1000.16 1000.53 1001.05 1001.65 1001.99 1003.34 1003.33 1004.11 1004.92 1005.51 1006.20 1006.86 1007.24 1007.27 1007.10 1006.78 1006.71 1006.42 1006.24 1005.97 1005.62 1004.98
1003.26 1003.20 1003.08 1002.94 1002.76 1002.38 1002.03 1001.59 1001.62 1001.79 1001.70 1001.17 1001.02 1001.49 1002.40 1002.30 1002.02 1001.43 1000.42 1000.12 999.84 1000.32 1000.81 1001.13 1001.49 1001.77 1002.69 1003.52 1004.23 1004.68 1005.17 1005.77 1006.07 1006.48 1006.91 1006.85 1006.66 1006.26 1006.11 1006.03 1005.74 1005.41 1004.88
1003.08 1003.06 1002.99 1002.64 1002.14 1001.81 1001.39 1001.21 1001.05 1001.09 1001.20 1001.04 1000.61 1000.47 1000.84 1000.65 1000.66 1000.47 1001.11 1000.34 1000.43 1000.47 1000.54 1001.00 1001.56 1001.91 1002.39 1003.00 1003.80 1004.59 1005.00 1005.17 1005.38 1005.81 1006.13 1006.04 1006.01 1005.92 1005.75 1005.55 1005.47 1005.15 1004.54
1002.71 1002.80 1002.71 1002.53 1002.33 1002.19 1001.87 1000.51 1000.47 1000.33 1000.49 1000.45 1000.38 1000.10 1000.01 1000.17 999.77 999.74 1000.69 1000.36 1000.41 1000.50 1000.82 1000.18 1001.02 1001.58 1001.94 1002.69 1003.43 1003.90 1004.26 1004.29 1004.32 1004.70 1004.84 1004.95 1005.24 1005.25 1005.27 1005.72 1005.27 1005.21 1004.21
1002.08 1002.23 1002.42 1002.36 1002.26 1001.94 1001.71 1001.69 1000.59 1000.04 999.97 999.63 999.46 999.39 999.25 999.10 999.22 999.48 999.98 1000.20 1000.63 1000.43 1000.25 998.90 1000.22 1000.78 1001.33 1002.04 1003.13 1003.23 1003.62 1003.38 1003.84 1004.26 1004.36 1004.54 1004.68 1004.63 1004.59 1004.81 1004.71 1004.70 1004.31
1001.73 1001.64 1001.61 1001.56 1001.51 1001.50 1001.25 1001.05 1001.07 1000.38 999.70 999.51 999.04 998.75 998.55 998.54 998.58 998.88 999.52 999.97 999.84 1000.37 1000.23 1000.42 1000.02 1000.74 1000.90 1001.29 1001.77 1002.37 1002.49 1002.85 1003.44 1003.77 1004.00 1004.08 1004.12 1003.94 1003.79 1003.61 1003.64 1003.76 1003.49
1001.38 1001.15 1001.08 1000.86 1000.80 1000.65 1000.58 1000.44 1000.32 1000.15 999.91 999.70 999.16 998.49 998.24 998.10 998.42 998.57 999.04 999.26 998.96 999.38 999.40 999.39 999.03 999.46 1000.16 1000.92 1001.33 1001.23 1001.59 1002.32 1002.91 1003.24 1003.47 1003.72 1003.73 1003.50 1003.17 1002.89 1002.48 1002.39 1002.40
1000.53 1000.17 1000.17 1000.28 1000.08 999.96 999.89 999.82 999.57 999.48 999.28 999.12 999.05 998.61 998.14 997.87 997.81 998.11 998.27 998.93 999.27 999.07 998.38 998.32 999.20 999.33 999.90 1000.11 1000.27 1000.62 1001.26 1001.96 1002.30 1002.75 1002.96 1003.10 1003.05 1002.75 1002.45 1002.24 1001.86 1001.80 1001.65
999.82 999.58 999.35 999.11 999.01 998.96 998.94 998.71 998.59 998.53 998.39 998.36 998.21 997.90 997.82 997.65 997.43 997.41 997.67 997.53 998.57 998.51 998.53 998.13 998.33 999.23 999.46 999.65 1000.12 1000.76 1000.45 1000.93 1001.39 1001.86 1002.20 1002.27 1002.20 1002.27 1002.10 1001.72 1001.46 1001.46 1001.26
999.16 998.77 998.54 998.20 998.12 997.94 997.82 997.78 997.76 997.57 997.52 997.54 997.49 997.51 997.42 997.25 997.66 998.03 998.05 997.91 998.46 998.08 998.02 997.82 998.11 998.45 998.91 999.25 999.37 999.56 999.91 1000.31 1000.79 1001.19 1001.60 1001.73 1001.73 1001.69 1001.38 1001.20 1001.13 1001.22 1001.13
998.23 997.90 997.62 997.50 997.44 997.42 997.23 996.89 996.75 996.69 996.88 996.95 997.04 997.30 997.16 997.10 997.56 997.77 997.76 998.08 998.49 998.88 998.03 997.09 997.04 997.39 997.83 998.17 998.38 998.66 998.92 999.34 999.89 1000.31 1000.54 1000.76 1000.71 1000.81 1000.68 1000.59 1000.70 1000.87 1000.53
997.42 997.11 996.92 996.87 996.97 996.82 996.61 996.37 995.92 995.83 996.00 996.14 996.36 996.61 996.92 997.24 997.06 997.57 997.81 998.02 998.34 998.77 998.29 996.73 996.26 996.42 996.72 996.98 996.96 997.40 997.88 998.31 998.80 999.14 999.42 999.69 999.92 1000.01 1000.05 1000.07 1000.21 1000.24 1000.15
997.36 996.71 996.37 996.45 996.13 996.01 996.01 995.76 995.69 995.51 995.41 995.31 995.35 995.62 995.90 996.17 996.52 996.88 997.30 997.68 998.17 998.13 997.68 996.86 995.71 995.73 995.96 996.07 996.39 996.36 996.78 997.29 997.71 998.11 998.42 998.68 998.92 999.19 999.39 999.60 999.85 1000.00 999.86
996.80 996.47 996.04 995.64 995.36 995.04 994.99 994.83 994.55 994.32 993.99 993.76 993.97 994.12 994.31 994.75 995.26 995.98 996.73 997.11 997.44 997.45 997.07 996.38 995.70 995.21 995.37 995.55 995.48 995.78 996.08 996.58 996.99 997.42 997.70 998.03 998.11 998.41 998.77 999.12 999.30 999.61 999.69
996.23 995.54 995.46 995.01 994.39 993.95 993.57 993.21 992.93 992.65 992.47 992.36 992.53 992.68 993.11 993.79 993.91 994.26 994.92 995.66 995.92 996.14 996.23 996.10 995.24 994.96 994.79 994.77 995.16 995.49 995.79 996.15 996.61 996.95 997.30 997.45 997.64 997.85 998.11 998.59 998.82 999.11 999.22
995.19 994.64 994.28 993.86 993.33 992.83 992.47 992.03 991.73 991.50 991.24 991.09 990.96 991.28 991.77 992.25 992.47 992.88 993.24 993.50 994.07 994.72 995.06 995.23 994.71 994.45 994.51 994.70 994.90 995.11 995.51 995.88 996.22 996.66 996.94 996.99 997.39 997.61 997.75 998.17 998.25 998.24 998.55
994.21 993.67 993.28 992.86 992.36 991.96 991.39 990.81 990.30 990.11 989.85 989.71 989.67 989.99 990.69 991.40 991.39 991.80 992.30 992.85 993.14 993.61 993.87 994.20 994.26 993.90 994.06 994.41 994.61 995.09 995.55 996.06 996.12 996.28 996.35 996.48 996.62 996.83 997.18 997.47 997.70 997.88 997.80
993.28 992.86 992.30 991.90 991.43 990.80 990.30 989.68 988.97 988.90 988.73 988.45 988.39 988.90 989.73 990.38 990.77 991.13 991.60 992.14 992.54 992.72 993.15 993.44 993.71 994.02 993.96 994.83 994.82 994.98 995.49 995.83 996.03 995.86 995.93 995.92 996.08 996.26 996.55 996.75 997.11 997.41 997.78
992.89 992.43 992.23 991.99 991.55 990.97 990.53 990.09 989.74 989.29 988.76 988.33 988.34 988.55 989.08 989.67 990.13 990.70 991.26 991.64 991.95 992.26 992.66 993.08 993.36 993.84 994.23 994.86 994.81 994.98 995.17 995.18 995.19 995.19 994.75 995.08 995.49 995.86 996.25 996.74 996.91 997.45 997.82
993.95 993.42 993.00 992.61 992.30 991.87 991.46 991.11 990.83 990.43 989.91 989.42 989.09 989.12 989.38 989.68 990.11 990.53 990.86 991.13 991.46 991.84 992.20 992.77 993.08 993.46 993.88 994.49 994.73 994.63 994.55 994.83 994.74 994.46 994.43 994.67 994.97 995.62 995.87 996.31 996.92 997.16 997.72
995.29 994.68 994.26 993.83 993.39 992.98 992.58 992.26 991.99 991.65 991.25 990.73 990.34 990.07 989.99 990.12 990.27 990.55 990.79 990.97 991.22 991.48 991.78 992.27 992.45 992.97 993.37 993.83 993.83 994.07 994.44 994.18 994.16 994.15 994.27 994.26 994.70 995.46 995.94 996.45 996.54 997.43 998.15
Thickness
5634 5633 5631 5637 5642 5638 5640 5642 5647 5654 5666 5677 5678 5674 5669 5665 5653 5648 5653 5658 5657 5661 5670 5667 5670 5670 5665 5666 5666 5660 5661 5654 5636 5662 5663 5667 5665 5665 5671 5673 5675 5676 5680
5620 5618 5616 5619 5620 5617 5618 5624 5629 5633 5641 5657 5664 5665 5664 5673 5664 5652 5651 5670 5632 5655 5659 5661 5655 5657 5654 5656 5660 5655 5653 5656 5651 5648 5654 5658 5657 5661 5662 5666 5672 5675 5675
5604 5602 5601 5599 5597 5597 5597 5602 5608 5613 5620 5628 5642 5650 5652 5657 5651 5652 5646 5632 5641 5650 5656 5663 5656 5644 5641 5645 5649 5650 5646 5643 5642 5639 5640 5649 5651 5654 5657 5662 5667 5671 5673
5589 5585 5582 5581 5583 5583 5584 5586 5590 5597 5603 5607 5608 5614 5625 5635 5647 5634 5632 5636 5641 5645 5650 5648 5649 5642 5635 5635 5640 5643 5637 5632 5632 5629 5629 5633 5639 5646 5649 5647 5652 5658 5662
5576 5573 5571 5572 5571 5576 5574 5572 5574 5577 5586 5600 5595 5590 5586 5617 5623 5627 5624 5623 5626 5633 5636 5639 5636 5635 5633 5629 5635 5631 5625 5621 5620 5617 5616 5623 5627 5631 5630 5635 5638 5645 5653
5564 5563 5562 5561 5561 5563 5567 5566 5562 5563 5567 5580 5583 5577 5569 5595 5597 5612 5620 5624 5627 5626 5625 5626 5624 5627 5618 5623 5623 5619 5617 5613 5609 5608 5609 5613 5620 5622 5624 5626 5628 5631 5638
5552 5550 5549 5550 5550 5553 5556 5560 5558 5554 5557 5567 5572 5568 5561 5569 5571 5572 5597 5607 5615 5614 5613 5613 5613 5618 5612 5613 5610 5609 5608 5605 5606 5606 5605 5608 5612 5617 5620 5620 5622 5626 5632
5535 5533 5532 5534 5538 5541 5546 5547 5550 5550 5549 5556 5565 5565 5562 5575 5576 5579 5579 5596 5601 5602 5603 5602 5602 5605 5611 5610 5606 5601 5600 5603 5604 5603 5604 5608 5610 5613 5616 5619 5619 5621 5630
5517 5513 5512 5514 5516 5519 5524 5538 5541 5544 5545 5547 5552 5556 5557 5563 5573 5576 5574 5583 5587 5587 5590 5603 5600 5604 5604 5602 5601 5597 5598 5602 5606 5605 5609 5611 5610 5610 5611 5610 5613 5614 5624
5500 5497 5495 5498 5499 5503 5507 5509 5524 5532 5537 5545 5549 5554 5559 5566 5567 5569 5572 5576 5573 5581 5572 5597 5599 5601 5600 5596 5594 5596 5594 5602 5601 5602 5606 5607 5607 5609 5610 5610 5613 5612 5617
5486 5487 5487 5491 5492 5492 5496 5500 5503 5513 5523 5531 5539 5546 5554 5558 5561 5561 5561 5565 5571 5570 5576 5580 5593 5591 5597 5596 5594 5595 5598 5599 5598 5600 5602 5604 5606 5609 5612 5616 5616 5616 5619
5476 5478 5480 5484 5487 5488 5489 5493 5495 5499 5504 5511 5523 5535 5542 5549 5551 5554 5552 5556 5564 5570 5575 5582 5593 5595 5595 5592 5591 5596 5595 5594 5595 5597 5598 5599 5601 5607 5611 5616 5620 5622 5625
5476 5477 5478 5478 5481 5483 5483 5487 5491 5493 5496 5502 5506 5517 5529 5537 5542 5544 5549 5550 5550 5559 5575 5583 5579 5586 5587 5593 5594 5595 5592 5592 5595 5594 5596 5598 5601 5607 5612 5617 5621 5623 5625
5478 5477 5478 5480 5480 5481 5480 5482 5483 5485 5488 5493 5498 5507 5516 5524 5532 5539 5545 5549 5545 5553 5561 5571 5577 5577 5581 5586 5589 5588 5596 5596 5597 5596 5597 5600 5603 5605 5609 5614 5618 5619 5622
5482 5482 5480 5481 5479 5478 5478 5478 5478 5480 5480 5483 5487 5492 5499 5509 5516 5512 5522 5535 5535 5547 5555 5561 5567 5573 5578 5580 5589 5594 5595 5595 5595 5597 5597 5599 5602 5604 5609 5613 5616 5615 5616
5485 5481 5480 5476 5473 5469 5469 5471 5470 5469 5467 5469 5472 5475 5484 5487 5488 5494 5502 5509 5514 5521 5541 5560 5567 5571 5572 5579 5586 5591 5595 5595 5597 5598 5600 5602 5606 5607 5610 5614 5614 5612 5615
5490 5487 5481 5477 5469 5466 5466 5468 5468 5468 5464 5462 5460 5461 5463 5469 5475 5477 5484 5493 5499 5507 5521 5548 5560 5566 5571 5578 5588 5592 5595 5599 5601 5602 5604 5605 5607 5609 5609 5612 5612 5612 5610
5488 5486 5479 5474 5470 5468 5466 5464 5463 5461 5461 5461 5459 5457 5457 5456 5459 5465 5470 5476 5483 5495 5512 5529 5551 5559 5565 5575 5583 5592 5596 5599 5602 5603 5605 5607 5609 5610 5611 5610 5610 5610 5610
5489 5485 5481 5478 5476 5473 5469 5466 5464 5462 5461 5460 5457 5457 5457 5457 5457 5455 5456 5463 5471 5484 5502 5519 5537 5551 5560 5569 5581 5588 5593 5595 5600 5601 5604 5607 5611 5611 5611 5609 5609 5602 5605
5493 5492 5485 5484 5482 5479 5476 5474 5469 5467 5464 5460 5455 5455 5453 5451 5458 5461 5462 5464 5475 5486 5496 5509 5529 5542 5554 5565 5573 5581 5587 5591 5594 5598 5601 5607 5608 5610 5611 5609 5609 5607 5611
5502 5502 5497 5493 5490 5487 5482 5478 5473 5470 5466 5461 5458 5454 5452 5457 5461 5466 5472 5479 5482 5486 5495 5507 5524 5536 5546 5556 5566 5576 5582 5586 5590 5594 5600 5604 5604 5605 5609 5608 5608 5609 5614
5514 5513 5510 5505 5503 5497 5493 5488 5484 5480 5477 5472 5469 5465 5457 5460 5469 5473 5476 5477 5484 5488 5497 5510 5520 5532 5542 5552 5563 5570 5575 5578 5585 5593 5597 5602 5606 5609 5610 5610 5608 5611 5616
5530 5526 5524 5521 5521 5516 5513 5510 5509 5499 5493 5491 5487 5480 5472 5471 5476 5479 5480 5481 5484 5493 5503 5513 5522 5529 5542 5548 5560 5569 5572 5576 5582 5591 5596 5601 5606 5610 5612 5611 5610 5611 5614
5542 5539 5534 5529 5524 5524 5519 5514 5509 5501 5500 5504 5499 5494 5490 5489 5489 5488 5487 5489 5494 5502 5509 5518 5527 5535 5543 5549 5559 5565 5571 5580 5588 5594 5603 5606 5608 5606 5610 5608 5610 5611 5612
5537 5535 5532 5529 5526 5523 5520 5515 5509 5505 5502 5501 5505 5504 5501 5499 5498 5496 5497 5500 5505 5514 5523 5527 5535 5542 5547 5551 5557 5564 5573 5578 5586 5597 5604 5606 5610 5609 5608 5611 5610 5613 5612
5530 5531 5530 5527 5526 5524 5521 5516 5511 5509 5506 5505 5504 5507 5508 5507 5506 5504 5506 5510 5516 5525 5533 5537 5545 5550 5554 5557 5564 5570 5574 5584 5590 5594 5601 5608 5608 5607 5609 5609 5614 5609 5606